Regional Weather Roundup
Issued by NWS Newport/Morehead, NC

Current Version | Previous Version | Graphics & Text | Print | Product List | Glossary Off
Versions: 1 2 3 4 5 6 7 8 9 10 11 12 13 14 15 16 17 18 19 20 21 22 23 24 25 26 27 28 29 30 31 32 33 34 35 36 37 38 39 40 41 42 43 44 45 46 47 48 49 50

000
ASUS42 KMHX 191610
RWRMHX
WEATHER ROUNDUP FOR EASTERN NORTH CAROLINA
NATIONAL WEATHER SERVICE NEWPORT/MOREHEAD CITY NC
1100 AM EST FRI DEC 19 2014

NOTE: "FAIR" INDICATES FEW OR NO CLOUDS BELOW 12,000 FEET
WITH NO SIGNIFICANT WEATHER AND/OR OBSTRUCTIONS TO VISIBILITY

NCZ015>017-031-032-045>047-102-103-191700-
NORTH COAST

CITY           SKY/WX    TMP DP  RH WIND       PRES   REMARKS
EDENTON          N/A     43  30  60 N3        30.18S
ELIZABETH CITY SUNNY     47  30  51 N6        30.18F
KITTY HAWK     SUNNY     44  33  64 NW7       30.15S
MANTEO         SUNNY     44  32  63 N7        30.17R

$$

NCZ045>047-081-094-103-104-191700-
CENTRAL COAST

CITY           SKY/WX    TMP DP  RH WIND       PRES   REMARKS
FRISCO         SUNNY     48  37  65 VRB7      30.15S
SWANQUARTER      N/A     46 N/A N/A N8        30.12S

$$

NCZ095-097-098-100-101-191700-
SOUTHERN COAST

CITY           SKY/WX    TMP DP  RH WIND       PRES   REMARKS
BEAUFORT       SUNNY     50  28  42 N13       30.16F
CEDAR ISLAND     N/A     46 N/A N/A NW6G13    30.18F
JACKSONVILLE   SUNNY     50  27  40 N9        30.16F
PINEY ISLAND   SUNNY     49  30  48 NW12      30.15F
WILMINGTON     SUNNY     54  26  34 NW5       30.17F


$$

NCZ011>013-027>030-043-044-078>080-089-090>093-098-191700-
COASTAL PLAIN

CITY           SKY/WX    TMP DP  RH WIND       PRES   REMARKS
AHOSKIE        SUNNY     40  26  57 CALM      30.19F
CLINTON        SUNNY     50  30  46 N5        30.19S
ELIZABETHTOWN  SUNNY     51  25  36 N5        30.17F
GOLDSBORO      SUNNY     47  30  51 N7        30.17F
GREENVILLE     SUNNY     43  32  65 NW3       30.19F
HAVELOCK       SUNNY     50  28  42 N8        30.17F
KENANSVILLE    SUNNY     48  26  43 N6        30.19S
KINSTON        SUNNY     48  30  49 N8        30.19F
NEW BERN       SUNNY     50  29  44 N7        30.18F
RICHLANDS      SUNNY     48  27  43 N8        30.18S
ROCKY MOUNT    SUNNY     43  28  55 NW7       30.19F
WASHINGTON     SUNNY     44  32  63 N3        30.17F
WHITEVILLE     SUNNY     52  26  35 CALM      30.17F

$$

AMZ130-135-150-152-154-156-158-170-250-252-270-ANZ085-086-088-633-658-670-191700-
MARINE OBSERVATIONS

STATION/POSITION TIME  TEMP    WIND        PRES    WAVE   SWELL
                       AIR SEA DIR/SP/G            HT/PER HT/PER
                 (UTC) (F)     (DEG/KT/KT) (MB)    (FT/S) (FT/S)
CHESAPEAKE LIGHT 1500   39     340/ 14/ 17 1022.2
64 E VA BEACH    1600   43 55  330/ 14/ 17 1020.4    3/ 5   2/11
DUCK             1600   41 47  350/ 10/ 12 1020.6
2 E DUCK         1600      48                N/A     3/ 5
10 NE DUCK       1600      51                N/A     3/ 5
OREGON INLET     1600   45 50  340/  9/ 13 1021.4
13E OREGON INLT  1600      52                N/A     3/12   2/12
HATTERAS CG      1600   45 53  340/ 10/ 12 1021.3
DIAMOND BUOY     NOT AVBL
17 S OCRACOKE    NOT AVBL
CAPE LOOKOUT     1500   47     330/  9/ 10 1021.6
BEAUFORT LAB     1600   48 53  360/  8/ 10 1020.3
30 SE NEW RIVER  1600   51 61  350/ 10/ 14 1021.8    2/ 8   2/ 8
5 SE WRIGHTSVLE  NOT AVBL
225 S CAPE HAT   1537   68 72   10/ 10/ 12 1019.4    4/ 8   3/ 8
41 SE CHARLESTON 1600   61 67   30/  4/  6 1020.8    1/10   2/10

$$



USA.gov is the U.S. government's official web portal to all federal, state and local government web resources and services.